This is the latest recevied weather packets stored in our database for station/object N4TLC. If no packets are shown the sender has not sent any weather packets the latest 10 day(s).
| Time | Temp. | Humidity | Pressure | Rain* | Wind** | Luminosity | Snow |
|---|---|---|---|---|---|---|---|
| 1776900446 | 23.33° C | 40% | 1018.9 hPa | 0 mm | - | 28 W/m² | - |
| 1776900144 | 23.89° C | 39% | 1018.9 hPa | 0 mm | - | 34 W/m² | - |
| 1776899840 | 23.89° C | 40% | 1018.8 hPa | 0 mm | - | 54 W/m² | - |
| 1776899538 | 24.44° C | 38% | 1019 hPa | 0 mm | - | 58 W/m² | - |
| 1776899235 | 23.89° C | 38% | 1018.7 hPa | 0 mm | - | 80 W/m² | - |
| 1776898930 | 23.89° C | 39% | 1018.9 hPa | 0 mm | - | 70 W/m² | - |
| 1776898627 | 23.89° C | 38% | 1018.9 hPa | 0 mm | - | 71 W/m² | - |
| 1776898323 | 23.89° C | 38% | 1018.8 hPa | 0 mm | - | 51 W/m² | - |
| 1776898021 | 23.89° C | 37% | 1019 hPa | 0 mm | - | 62 W/m² | - |
| 1776897718 | 23.89° C | 38% | 1018.8 hPa | 0 mm | - | 72 W/m² | - |
| 1776897416 | 23.89° C | 37% | 1018.9 hPa | 0 mm | - | 84 W/m² | - |
| 1776897113 | 23.89° C | 37% | 1018.9 hPa | 0 mm | - | 53 W/m² | - |
| 1776896810 | 23.89° C | 37% | 1018.9 hPa | 0 mm | - | 64 W/m² | - |
| 1776896506 | 24.44° C | 36% | 1018.8 hPa | 0 mm | - | 69 W/m² | - |
| 1776896201 | 24.44° C | 36% | 1018.9 hPa | 0 mm | - | 69 W/m² | - |
| 1776895898 | 25° C | 35% | 1018.9 hPa | 0 mm | - | 114 W/m² | - |
| 1776895596 | 25° C | 35% | 1018.9 hPa | 0 mm | - | 84 W/m² | - |
| 1776895291 | 25° C | 35% | 1018.9 hPa | 0 mm | - | 102 W/m² | - |
| 1776894987 | 25° C | 35% | 1018.7 hPa | 0 mm | - | 109 W/m² | - |
| 1776894686 | 25° C | 35% | 1018.8 hPa | 0 mm | - | 140 W/m² | - |
| 1776894382 | 25° C | 34% | 1018.6 hPa | 0 mm | - | 80 W/m² | - |
| 1776894077 | 25.56° C | 34% | 1018.6 hPa | 0 mm | - | 65 W/m² | - |
| 1776893772 | 25.56° C | 33% | 1018.7 hPa | 0 mm | - | 94 W/m² | - |
| 1776893469 | 26.11° C | 32% | 1018.7 hPa | 0 mm | - | 139 W/m² | - |
| 1776893166 | 26.11° C | 31% | 1018.9 hPa | 0 mm | - | 170 W/m² | - |
* Rain latest hour (hover to see other rain measurements)
** Current wind speed in m/s (hover to see current wind gust speed)